Reno, NV

3:42 AM PDT on June 25, 2017 (GMT -0700)
Reno-Tahoe International

Weather History for KRNO - July, 2013

Change the Weather History Date:

Saturday, July 27, 2013

  Actual Average Record
Temperature  
Mean Temperature 81 °F 76 °F  
Max Temperature 95 °F 94 °F 103 °F (1945)
Min Temperature 66 °F 59 °F 39 °F (1965)
Degree Days  
Heating Degree Days 0 0  
Month to date heating degree days 0 0  
Since 1 June heating degree days 16 56  
Since 1 July heating degree days 0 0  
Cooling Degree Days 16 11  
Month to date cooling degree days 426 270  
Year to date cooling degree days 689 443  
Since 1 June cooling degree days 653 406  
Growing Degree Days 30 (Base 50)    
Moisture  
Dew Point 43 °F    
Average Humidity 31    
Maximum Humidity 48    
Minimum Humidity 14    
Precipitation  
Precipitation 0.05 in 0.00 in 0.11 in (1941)
Month to date precipitation 0.49 0.15  
Year to date precipitation 1.96 4.43  
Snow  
Snow 0.00 in 0.00 in 0.00 in ()
Month to date snowfall 0.0 0.0  
Since 1 June snowfall 0.0 T  
Since 1 July snowfall 0.0 0.0  
Snow Depth 0.00 in    
Sea Level Pressure  
Sea Level Pressure 29.90 in    
Wind  
Wind Speed 7 mph (WNW)    
Max Wind Speed 29 mph    
Max Gust Speed 38 mph    
Visibility 10 miles    
Events Rain    
T = Trace of Precipitation, MM = Missing Value Source: NWS Daily Summary

Daily Weather History Graph

Daily Weather History Graph

Search for Another Location

Airport or City:

Trip Planner

Search our weather history database for the weather conditions in past years. The results will help you decide how hot, cold, wet, or windy it might be!

Date:

Astronomy

Jul. 27, 2013 Rise Set
Actual Time 5:54 AM PDT 8:16 PM PDT
Civil Twilight 5:24 AM PDT 8:46 PM PDT
Nautical Twilight 4:46 AM PDT 9:23 PM PDT
Astronomical Twilight 4:04 AM PDT 10:05 PM PDT
Moon 11:08 PM PDT (7/27) 11:38 AM PDT (7/27)
Length of Visible Light 15h 22m
Length of Day
14h 21m
Waning Gibbous, 70% of the Moon is Illuminated
Jul 27
Waning Gibbous
Jul 29
Last Quarter
Aug 6
New
Aug 14
First Quarter
Aug 20
Full

Hourly Weather History & Observations

Time (PDT) Temp. Dew Point Humidity Pressure Visibility Wind Dir Wind Speed Gust Speed Precip Events Conditions
12:55 AM 75.9 °F 45.0 °F 33% 30.01 in 10.0 mi WNW 4.6 mph - N/A   Scattered Clouds
1:55 AM 73.0 °F 45.0 °F 37% 30.01 in 10.0 mi West 3.5 mph - N/A   Partly Cloudy
2:55 AM 71.1 °F 44.1 °F 38% 30.01 in 10.0 mi West 4.6 mph - N/A   Partly Cloudy
3:55 AM 69.1 °F 44.1 °F 40% 30.00 in 10.0 mi WNW 8.1 mph - N/A   Clear
4:55 AM 69.1 °F 44.1 °F 40% 30.00 in 10.0 mi West 4.6 mph - N/A   Clear
5:55 AM 66.0 °F 45.0 °F 47% 30.00 in 10.0 mi West 4.6 mph - N/A   Partly Cloudy
6:55 AM 66.9 °F 46.0 °F 47% 30.00 in 10.0 mi West 6.9 mph - N/A   Clear
7:55 AM 71.1 °F 46.9 °F 42% 30.00 in 10.0 mi Calm Calm - N/A   Clear
8:55 AM 75.9 °F 46.0 °F 35% 29.99 in 10.0 mi SSW 3.5 mph - N/A   Clear
9:55 AM 79.0 °F 44.1 °F 29% 29.97 in 10.0 mi Calm Calm - N/A   Partly Cloudy
10:55 AM 84.0 °F 46.0 °F 26% 29.94 in 10.0 mi NE 5.8 mph - N/A   Partly Cloudy
11:55 AM 87.1 °F 46.0 °F 24% 29.92 in 10.0 mi East 4.6 mph - N/A   Partly Cloudy
12:55 PM 90.0 °F 41.0 °F 18% 29.89 in 10.0 mi West 4.6 mph - N/A   Partly Cloudy
1:55 PM 93.0 °F 41.0 °F 16% 29.86 in 10.0 mi NW 4.6 mph - N/A   Scattered Clouds
2:55 PM 93.9 °F 41.0 °F 16% 29.83 in 10.0 mi East 8.1 mph - N/A   Scattered Clouds
3:55 PM 93.0 °F 37.9 °F 15% 29.81 in 10.0 mi WSW 10.4 mph - N/A   Mostly Cloudy
4:55 PM 89.1 °F 43.0 °F 20% 29.80 in 10.0 mi SSW 18.4 mph 25.3 mph N/A   Mostly Cloudy
5:55 PM 84.0 °F 52.0 °F 33% 29.81 in 10.0 mi SE 15.0 mph 23.0 mph 0.05 in Rain Light Rain
6:55 PM 89.1 °F 44.1 °F 21% 29.79 in 10.0 mi WNW 10.4 mph - 0.00 in   Scattered Clouds
7:55 PM 86.0 °F 41.0 °F 20% 29.80 in 10.0 mi WNW 16.1 mph 21.9 mph N/A   Scattered Clouds
8:55 PM 82.0 °F 43.0 °F 25% 29.81 in 10.0 mi WNW 10.4 mph 17.3 mph N/A   Scattered Clouds
9:55 PM 81.0 °F 39.9 °F 23% 29.83 in 10.0 mi WNW 11.5 mph - N/A   Partly Cloudy
10:55 PM 80.1 °F 37.0 °F 21% 29.84 in 10.0 mi NW 4.6 mph - N/A   Partly Cloudy
11:55 PM 78.1 °F 41.0 °F 27% 29.84 in 10.0 mi NW 4.6 mph - N/A   Scattered Clouds